Sisseton, SD

3:13 AM CDT on May 24, 2017 (GMT -0500)
Sisseton

Weather History for K8D3 - August, 2013

Change the Weather History Date:

Friday, August 9, 2013

  Actual Average Record
Temperature  
Mean Temperature 64 °F 70 °F  
Max Temperature 75 °F 82 °F 102 °F (1947)
Min Temperature 52 °F 59 °F 46 °F (1934)
Degree Days  
Heating Degree Days 1 0  
Month to date heating degree days 9 0  
Since 1 June heating degree days 104 75  
Since 1 July heating degree days 35 13  
Cooling Degree Days 0 6  
Month to date cooling degree days 11 56  
Year to date cooling degree days 359 378  
Since 1 June cooling degree days 334 355  
Growing Degree Days 12 (Base 50)    
Moisture  
Dew Point 51 °F    
Average Humidity 69    
Maximum Humidity 96    
Minimum Humidity 41    
Precipitation  
Precipitation 0.00 in 0.08 in 1.68 in (1900)
Month to date precipitation 0.64 0.87  
Year to date precipitation 18.36 15.17  
Sea Level Pressure  
Sea Level Pressure 30.08 in    
Wind  
Wind Speed 8 mph (NNW)    
Max Wind Speed 17 mph    
Max Gust Speed 23 mph    
T = Trace of Precipitation, MM = Missing Value Source: NWS Daily Summary

Daily Weather History Graph

Daily Weather History Graph

Search for Another Location

Airport or City:

Trip Planner

Search our weather history database for the weather conditions in past years. The results will help you decide how hot, cold, wet, or windy it might be!

Date:

Astronomy

Aug. 09, 2013 Rise Set
Actual Time 6:21 AM CDT 8:44 PM CDT
Civil Twilight 5:48 AM CDT 9:17 PM CDT
Nautical Twilight 5:06 AM CDT 9:58 PM CDT
Astronomical Twilight 4:19 AM CDT 10:45 PM CDT
Moon 9:20 AM CDT (8/9) 9:41 PM CDT (8/9)
Length of Visible Light 15h 29m
Length of Day
14h 23m
Waxing Crescent, 8% of the Moon is Illuminated
Aug 9
Waxing Crescent
Aug 14
First Quarter
Aug 20
Full
Aug 28
Last Quarter
Sep 5
New

Hourly Weather History & Observations

Time (CDT) Temp. Dew Point Humidity Pressure Visibility Wind Dir Wind Speed Gust Speed Precip Events Conditions
12:56 AM 52.0 °F 50.0 °F 93% 30.02 in - NNW 3.5 mph - N/A   Unknown
1:56 AM 53.1 °F 51.1 °F 93% 30.03 in - NNW 5.8 mph - N/A   Unknown
2:56 AM 55.9 °F 51.1 °F 84% 30.03 in - NW 5.8 mph - N/A   Unknown
3:56 AM 54.0 °F 51.1 °F 90% 30.04 in - NW 6.9 mph - N/A   Unknown
4:56 AM 55.0 °F 52.0 °F 89% 30.04 in - NNW 6.9 mph - N/A   Unknown
5:56 AM 53.1 °F 50.0 °F 89% 30.06 in - NNW 5.8 mph - N/A   Unknown
6:56 AM 53.1 °F 50.0 °F 89% 30.07 in - NNW 4.6 mph - N/A   Unknown
7:56 AM 57.0 °F 51.1 °F 81% 30.07 in - NW 4.6 mph - N/A   Unknown
8:56 AM 61.0 °F 51.1 °F 70% 30.10 in - NNW 8.1 mph - N/A   Unknown
9:56 AM 64.9 °F 50.0 °F 58% 30.11 in - North 10.4 mph - N/A   Unknown
10:56 AM 68.0 °F 48.9 °F 50% 30.12 in - North 9.2 mph - N/A   Unknown
11:56 AM 70.0 °F 48.9 °F 47% 30.11 in - NNW 13.8 mph - N/A   Unknown
12:56 PM 71.1 °F 50.0 °F 47% 30.10 in - WNW 11.5 mph 18.4 mph N/A   Unknown
1:56 PM 73.0 °F 48.9 °F 42% 30.08 in - NW 12.7 mph - N/A   Unknown
2:56 PM 73.9 °F 50.0 °F 43% 30.07 in - NW 12.7 mph 20.7 mph N/A   Unknown
3:56 PM 73.9 °F 51.1 °F 45% 30.07 in - North 15.0 mph 20.7 mph N/A   Unknown
4:56 PM 73.9 °F 50.0 °F 43% 30.07 in - NNW 12.7 mph 21.9 mph N/A   Unknown
5:56 PM 73.0 °F 53.1 °F 49% 30.07 in - NE 12.7 mph - N/A   Unknown
6:56 PM 70.0 °F 52.0 °F 53% 30.09 in - NNE 10.4 mph 17.3 mph N/A   Unknown
7:56 PM 66.9 °F 54.0 °F 63% 30.09 in - NNE 5.8 mph - N/A   Unknown
8:56 PM 60.1 °F 54.0 °F 80% 30.12 in - North 3.5 mph - N/A   Unknown
9:56 PM 57.9 °F 53.1 °F 84% 30.13 in - WNW 4.6 mph - N/A   Unknown
10:56 PM 55.0 °F 52.0 °F 89% 30.14 in - NNW 5.8 mph - N/A   Unknown
11:56 PM 52.0 °F 50.0 °F 93% 30.15 in - Calm Calm - N/A   Unknown